Location: Carrières
(48.9495°N, 2.0407°E)
Time: 18:04:21
(UTC+00:00)

Transit 2A - Visible Passes

Search period start: 23 April 2024 00:00
Search period end: 03 May 2024 00:00
Orbit: 596 x 956 km, 66.7° (Epoch: 23 April)

Date Brightness Start Highest point End Pass type
(mag) Time Alt. Az. Time Alt. Az. Time Alt. Az.
25 Apr 8.7 03:41:21 10° ESE 03:42:02 10° ESE 03:42:43 10° E visible
28 Apr 7.7 03:35:32 10° SSE 03:39:05 24° ESE 03:42:52 10° ENE visible
29 Apr 8.1 03:01:29 10° SE 03:04:12 16° ESE 03:07:03 10° ENE visible
30 Apr 8.4 02:28:45 10° ESE 02:29:23 10° ESE 02:30:02 10° E visible
01 May 6.4 03:32:01 10° SSW 03:36:22 52° ESE 03:41:05 10° NE visible
02 May 7.0 02:57:18 10° S 03:01:21 35° ESE 03:05:44 10° NE visible
